Location: Colonia Mina de C?rbuni
(46.1667°N, 22.7167°E)
Time: 13:23:51
(UTC+00:00)

deb Explorer IX - Pass Details

Date: 22 April 2024
Orbit: 512 x 891 km, 38.7° (Epoch: 23 May)

Event Time Altitude Azimuth Distance (km) Brightness Sun altitude
Rises 10:19:10 0° 250° (WSW) 3,385 ? 56.2°
Reaches altitude 10° 10:21:45 10° 243° (WSW) 2,493 ? 56.3°
Maximum altitude 10:27:21 41° 175° (S) 1,261 ? 56.3°
Drops below altitude 10° 10:33:09 10° 107° (ESE) 2,575 ? 56.3°
Sets 10:35:52 0° 100° (E) 3,508 ? 56.2°
